Year,Month,Day,Hour,Minute,Value (Times are PST for windspeed in km/hr)
2015,06,12,00,00,10.00
2015,06,12,00,01,9.40
2015,06,12,00,02,10.90
2015,06,12,00,03,10.40
2015,06,12,00,04,7.70
2015,06,12,00,05,9.00
2015,06,12,00,06,11.20
2015,06,12,00,07,8.70
2015,06,12,00,08,7.70
2015,06,12,00,09,7.40
2015,06,12,00,10,9.70
2015,06,12,00,11,7.30
2015,06,12,00,12,8.00
2015,06,12,00,13,5.60
2015,06,12,00,14,8.50
2015,06,12,00,15,7.70
2015,06,12,00,16,4.50
2015,06,12,00,17,4.50
2015,06,12,00,18,6.40
2015,06,12,00,19,8.10
2015,06,12,00,20,5.60
2015,06,12,00,21,4.50
2015,06,12,00,22,4.40
2015,06,12,00,23,5.80
2015,06,12,00,24,4.00
2015,06,12,00,25,5.10
2015,06,12,00,26,4.40
2015,06,12,00,27,4.10
2015,06,12,00,28,4.50
2015,06,12,00,29,4.70
2015,06,12,00,30,3.50
2015,06,12,00,31,2.80
2015,06,12,00,32,3.40
2015,06,12,00,33,4.20
2015,06,12,00,34,3.70
2015,06,12,00,35,4.10
2015,06,12,00,36,3.10
2015,06,12,00,37,3.70
2015,06,12,00,38,3.80
2015,06,12,00,39,4.40
2015,06,12,00,40,5.20
2015,06,12,00,41,3.10
2015,06,12,00,42,3.20
2015,06,12,00,43,4.70
2015,06,12,00,44,4.50
2015,06,12,00,45,3.40
2015,06,12,00,46,3.40
2015,06,12,00,47,2.40
2015,06,12,00,48,3.20
2015,06,12,00,49,4.10
2015,06,12,00,50,4.10
2015,06,12,00,51,2.20
2015,06,12,00,52,2.60
2015,06,12,00,53,3.70
2015,06,12,00,54,3.70
2015,06,12,00,55,3.60
2015,06,12,00,56,2.30
2015,06,12,00,57,2.60
2015,06,12,00,58,2.40
2015,06,12,00,59,3.30
2015,06,12,01,00,5.40
2015,06,12,01,01,3.20
2015,06,12,01,02,3.10
2015,06,12,01,03,3.00
2015,06,12,01,04,3.10
2015,06,12,01,05,1.70
2015,06,12,01,06,2.30
2015,06,12,01,07,3.20
2015,06,12,01,08,3.30
2015,06,12,01,09,2.70
2015,06,12,01,10,3.20
2015,06,12,01,11,3.60
2015,06,12,01,12,0.50
2015,06,12,01,13,2.40
2015,06,12,01,14,3.40
2015,06,12,01,15,3.30
2015,06,12,01,16,3.40
2015,06,12,01,17,3.50
2015,06,12,01,18,3.60
2015,06,12,01,19,2.50
2015,06,12,01,20,3.40
2015,06,12,01,21,4.70
2015,06,12,01,22,3.30
2015,06,12,01,23,1.20
2015,06,12,01,24,3.90
2015,06,12,01,25,2.80
2015,06,12,01,26,0.60
2015,06,12,01,27,2.50
2015,06,12,01,28,2.50
2015,06,12,01,29,3.90
2015,06,12,01,30,1.90
2015,06,12,01,31,3.00
2015,06,12,01,32,3.40
2015,06,12,01,33,3.40
2015,06,12,01,34,3.50
2015,06,12,01,35,4.10
2015,06,12,01,36,4.90
2015,06,12,01,37,3.90
2015,06,12,01,38,4.00
2015,06,12,01,39,3.40
2015,06,12,01,40,3.60
2015,06,12,01,41,4.10
2015,06,12,01,42,4.80
2015,06,12,01,43,4.50
2015,06,12,01,44,4.90
2015,06,12,01,45,5.40
2015,06,12,01,46,4.80
2015,06,12,01,47,6.20
2015,06,12,01,48,4.80
2015,06,12,01,49,4.40
2015,06,12,01,50,2.70
2015,06,12,01,51,3.40
2015,06,12,01,52,4.60
2015,06,12,01,53,4.30
2015,06,12,01,54,4.80
2015,06,12,01,55,3.80
2015,06,12,01,56,5.30
2015,06,12,01,57,4.70
2015,06,12,01,58,5.30
2015,06,12,01,59,5.90
2015,06,12,02,00,4.80
2015,06,12,02,01,5.00
2015,06,12,02,02,4.30
2015,06,12,02,03,6.10
2015,06,12,02,04,5.80
2015,06,12,02,05,6.40
2015,06,12,02,06,7.70
2015,06,12,02,07,3.10
2015,06,12,02,08,5.60
2015,06,12,02,09,5.60
2015,06,12,02,10,8.00
2015,06,12,02,11,3.70
2015,06,12,02,12,5.30
2015,06,12,02,13,5.50
2015,06,12,02,14,5.90
2015,06,12,02,15,6.60
2015,06,12,02,16,4.10
2015,06,12,02,17,5.70
2015,06,12,02,18,4.50
2015,06,12,02,19,5.90
2015,06,12,02,20,6.80
2015,06,12,02,21,5.90
2015,06,12,02,22,5.00
2015,06,12,02,23,4.40
2015,06,12,02,24,4.50
2015,06,12,02,25,5.70
2015,06,12,02,26,3.10
2015,06,12,02,27,5.60
2015,06,12,02,28,8.10
2015,06,12,02,29,7.10
2015,06,12,02,30,4.50
2015,06,12,02,31,6.30
2015,06,12,02,32,5.10
2015,06,12,02,33,4.60
2015,06,12,02,34,4.10
2015,06,12,02,35,4.10
2015,06,12,02,36,5.00
2015,06,12,02,37,5.10
2015,06,12,02,38,5.20
2015,06,12,02,39,4.90
2015,06,12,02,40,4.40
2015,06,12,02,41,5.90
2015,06,12,02,42,5.20
2015,06,12,02,43,4.90
2015,06,12,02,44,4.50
2015,06,12,02,45,5.50
2015,06,12,02,46,4.30
2015,06,12,02,47,2.40
2015,06,12,02,48,4.80
2015,06,12,02,49,2.70
2015,06,12,02,50,3.20
2015,06,12,02,51,8.60
2015,06,12,02,52,6.40
2015,06,12,02,53,4.50
2015,06,12,02,54,4.40
2015,06,12,02,55,4.70
2015,06,12,02,56,5.70
2015,06,12,02,57,5.90
2015,06,12,02,58,7.60
2015,06,12,02,59,7.10
2015,06,12,03,00,6.10
2015,06,12,03,01,6.50
2015,06,12,03,02,8.10
2015,06,12,03,03,6.40
2015,06,12,03,04,7.00
2015,06,12,03,05,11.30
2015,06,12,03,06,6.50
2015,06,12,03,07,11.20
2015,06,12,03,08,6.40
2015,06,12,03,09,7.00
2015,06,12,03,10,9.30
2015,06,12,03,11,9.00
2015,06,12,03,12,6.40
2015,06,12,03,13,10.30
2015,06,12,03,14,6.40
2015,06,12,03,15,4.90
2015,06,12,03,16,5.00
2015,06,12,03,17,8.90
2015,06,12,03,18,5.10
2015,06,12,03,19,4.00
2015,06,12,03,20,4.20
2015,06,12,03,21,4.40
2015,06,12,03,22,4.90
2015,06,12,03,23,4.20
2015,06,12,03,24,6.40
2015,06,12,03,25,8.10
2015,06,12,03,26,9.10
2015,06,12,03,27,8.30
2015,06,12,03,28,4.20
2015,06,12,03,29,6.20
2015,06,12,03,30,6.00
2015,06,12,03,31,5.70
2015,06,12,03,32,4.50
2015,06,12,03,33,4.20
2015,06,12,03,34,3.40
2015,06,12,03,35,3.10
2015,06,12,03,36,5.60
2015,06,12,03,37,4.70
2015,06,12,03,38,6.10
2015,06,12,03,39,5.70
2015,06,12,03,40,4.80
2015,06,12,03,41,4.30
2015,06,12,03,42,6.40
2015,06,12,03,43,3.80
2015,06,12,03,44,3.40
2015,06,12,03,45,3.40
2015,06,12,03,46,4.50
2015,06,12,03,47,5.50
2015,06,12,03,48,3.70
2015,06,12,03,49,3.90
2015,06,12,03,50,4.30
2015,06,12,03,51,3.80
2015,06,12,03,52,4.10
2015,06,12,03,53,4.50
2015,06,12,03,54,4.20
2015,06,12,03,55,5.20
2015,06,12,03,56,4.80
2015,06,12,03,57,3.70
2015,06,12,03,58,3.10
2015,06,12,03,59,4.50
2015,06,12,04,00,4.50
2015,06,12,04,01,3.80
2015,06,12,04,02,4.60
2015,06,12,04,03,5.00
2015,06,12,04,04,6.30
2015,06,12,04,05,4.60
2015,06,12,04,06,4.40
2015,06,12,04,07,4.80
2015,06,12,04,08,4.20
2015,06,12,04,09,6.60
2015,06,12,04,10,4.10
2015,06,12,04,11,5.00
2015,06,12,04,12,3.40
2015,06,12,04,13,2.60
2015,06,12,04,14,5.00
2015,06,12,04,15,5.10
2015,06,12,04,16,5.40
2015,06,12,04,17,6.20
2015,06,12,04,18,6.30
2015,06,12,04,19,2.80
2015,06,12,04,20,3.40
2015,06,12,04,21,4.10
2015,06,12,04,22,5.00
2015,06,12,04,23,4.10
2015,06,12,04,24,5.20
2015,06,12,04,25,5.30
2015,06,12,04,26,5.50
2015,06,12,04,27,7.20
2015,06,12,04,28,7.00
2015,06,12,04,29,7.40
2015,06,12,04,30,6.70
2015,06,12,04,31,6.90
2015,06,12,04,32,5.00
2015,06,12,04,33,6.40
2015,06,12,04,34,5.70
2015,06,12,04,35,5.80
2015,06,12,04,36,5.80
2015,06,12,04,37,6.80
2015,06,12,04,38,4.70
2015,06,12,04,39,4.20
2015,06,12,04,40,7.60
2015,06,12,04,41,6.30
2015,06,12,04,42,7.40
2015,06,12,04,43,6.00
2015,06,12,04,44,4.40
2015,06,12,04,45,5.70
2015,06,12,04,46,4.10
2015,06,12,04,47,4.70
2015,06,12,04,48,5.20
2015,06,12,04,49,4.50
2015,06,12,04,50,5.50
2015,06,12,04,51,3.80
2015,06,12,04,52,6.60
2015,06,12,04,53,3.40
2015,06,12,04,54,3.00
2015,06,12,04,55,5.60
2015,06,12,04,56,5.10
2015,06,12,04,57,4.70
2015,06,12,04,58,4.10
2015,06,12,04,59,4.50
2015,06,12,05,00,4.50
2015,06,12,05,01,3.50
2015,06,12,05,02,4.20
2015,06,12,05,03,5.70
2015,06,12,05,04,4.50
2015,06,12,05,05,5.00
2015,06,12,05,06,6.00
2015,06,12,05,07,5.60
2015,06,12,05,08,5.30
2015,06,12,05,09,4.70
2015,06,12,05,10,5.10
2015,06,12,05,11,4.20
2015,06,12,05,12,4.40
2015,06,12,05,13,4.00
2015,06,12,05,14,5.10
2015,06,12,05,15,6.00
2015,06,12,05,16,5.70
2015,06,12,05,17,5.10
2015,06,12,05,18,5.20
2015,06,12,05,19,3.80
2015,06,12,05,20,5.00
2015,06,12,05,21,5.30
2015,06,12,05,22,4.20
2015,06,12,05,23,4.70
2015,06,12,05,24,5.40
2015,06,12,05,25,4.60
2015,06,12,05,26,5.50
2015,06,12,05,27,4.50
2015,06,12,05,28,5.40
2015,06,12,05,29,4.40
2015,06,12,05,30,3.70
2015,06,12,05,31,6.10
2015,06,12,05,32,5.90
2015,06,12,05,33,5.40
2015,06,12,05,34,6.10
2015,06,12,05,35,6.20
2015,06,12,05,36,5.10
2015,06,12,05,37,5.60
2015,06,12,05,38,4.90
2015,06,12,05,39,5.70
2015,06,12,05,40,5.00
2015,06,12,05,41,5.60
2015,06,12,05,42,5.20
2015,06,12,05,43,4.70
2015,06,12,05,44,5.90
2015,06,12,05,45,6.10
2015,06,12,05,46,4.50
2015,06,12,05,47,6.40
2015,06,12,05,48,5.70
2015,06,12,05,49,5.30
2015,06,12,05,50,6.40
2015,06,12,05,51,7.90
2015,06,12,05,52,7.10
2015,06,12,05,53,3.90
2015,06,12,05,54,4.60
2015,06,12,05,55,6.10
2015,06,12,05,56,5.60
2015,06,12,05,57,5.50
2015,06,12,05,58,6.80
2015,06,12,05,59,6.10
2015,06,12,06,00,5.50
2015,06,12,06,01,4.00
2015,06,12,06,02,6.00
2015,06,12,06,03,5.00
2015,06,12,06,04,3.70
2015,06,12,06,05,4.70
2015,06,12,06,06,5.70
2015,06,12,06,07,7.30
2015,06,12,06,08,6.70
2015,06,12,06,09,7.10
2015,06,12,06,10,3.90
2015,06,12,06,11,4.40
2015,06,12,06,12,7.70
2015,06,12,06,13,6.60
2015,06,12,06,14,4.20
2015,06,12,06,15,4.90
2015,06,12,06,16,6.50
2015,06,12,06,17,5.60
2015,06,12,06,18,6.00
2015,06,12,06,19,6.70
2015,06,12,06,20,8.40
2015,06,12,06,21,7.20
2015,06,12,06,22,8.40
2015,06,12,06,23,5.60
2015,06,12,06,24,6.40
2015,06,12,06,25,4.80
2015,06,12,06,26,7.70
2015,06,12,06,27,6.20
2015,06,12,06,28,6.70
2015,06,12,06,29,7.40
2015,06,12,06,30,8.90
2015,06,12,06,31,5.30
2015,06,12,06,32,5.50
2015,06,12,06,33,3.80
2015,06,12,06,34,3.90
2015,06,12,06,35,6.20
2015,06,12,06,36,3.10
2015,06,12,06,37,6.00
2015,06,12,06,38,7.10
2015,06,12,06,39,5.40
2015,06,12,06,40,7.30
2015,06,12,06,41,6.70
2015,06,12,06,42,6.70
2015,06,12,06,43,7.50
2015,06,12,06,44,10.40
2015,06,12,06,45,8.70
2015,06,12,06,46,10.00
2015,06,12,06,47,8.30
2015,06,12,06,48,3.80
2015,06,12,06,49,9.50
2015,06,12,06,50,5.30
2015,06,12,06,51,7.70
2015,06,12,06,52,10.20
2015,06,12,06,53,7.00
2015,06,12,06,54,5.60
2015,06,12,06,55,8.20
2015,06,12,06,56,9.20
2015,06,12,06,57,6.70
2015,06,12,06,58,6.50
2015,06,12,06,59,7.10
2015,06,12,07,00,6.10
2015,06,12,07,01,5.40
2015,06,12,07,02,9.20
2015,06,12,07,03,8.60
2015,06,12,07,04,7.30
2015,06,12,07,05,8.10
2015,06,12,07,06,7.30
2015,06,12,07,07,7.90
2015,06,12,07,08,5.90
2015,06,12,07,09,6.20
2015,06,12,07,10,8.30
2015,06,12,07,11,7.40
2015,06,12,07,12,7.20
2015,06,12,07,13,8.30
2015,06,12,07,14,7.20
2015,06,12,07,15,5.00
2015,06,12,07,16,7.00
2015,06,12,07,17,8.70
2015,06,12,07,18,7.90
2015,06,12,07,19,8.40
2015,06,12,07,20,8.20
2015,06,12,07,21,9.20
2015,06,12,07,22,9.70
2015,06,12,07,23,6.40
2015,06,12,07,24,6.10
2015,06,12,07,25,7.10
2015,06,12,07,26,5.30
2015,06,12,07,27,6.40
2015,06,12,07,28,7.60
2015,06,12,07,29,4.20
2015,06,12,07,30,5.40
2015,06,12,07,31,5.20
2015,06,12,07,32,9.20
2015,06,12,07,33,7.10
2015,06,12,07,34,6.20
2015,06,12,07,35,7.40
2015,06,12,07,36,5.90
2015,06,12,07,37,4.60
2015,06,12,07,38,5.30
2015,06,12,07,39,5.40
2015,06,12,07,40,8.40
2015,06,12,07,41,4.90
2015,06,12,07,42,4.80
2015,06,12,07,43,6.50
2015,06,12,07,44,6.20
2015,06,12,07,45,5.00
2015,06,12,07,46,4.80
2015,06,12,07,47,5.20
2015,06,12,07,48,7.50
2015,06,12,07,49,4.20
2015,06,12,07,50,8.40
2015,06,12,07,51,7.50
2015,06,12,07,52,6.70
2015,06,12,07,53,7.80
2015,06,12,07,54,5.80
2015,06,12,07,55,7.00
2015,06,12,07,56,9.50
2015,06,12,07,57,6.10
2015,06,12,07,58,7.50
2015,06,12,07,59,7.00
2015,06,12,08,00,9.10
2015,06,12,08,01,9.40
2015,06,12,08,02,10.90
2015,06,12,08,03,8.70
2015,06,12,08,04,11.50
2015,06,12,08,05,10.70
2015,06,12,08,06,9.40
2015,06,12,08,07,8.60
2015,06,12,08,08,6.50
2015,06,12,08,09,7.50
2015,06,12,08,10,11.90
2015,06,12,08,11,7.80
2015,06,12,08,12,8.90
2015,06,12,08,13,6.70
2015,06,12,08,14,10.60
2015,06,12,08,15,12.80
2015,06,12,08,16,12.80
2015,06,12,08,17,10.00
2015,06,12,08,18,10.80
2015,06,12,08,19,7.60
2015,06,12,08,20,9.80
2015,06,12,08,21,8.20
2015,06,12,08,22,7.60
2015,06,12,08,23,10.40
2015,06,12,08,24,9.60
2015,06,12,08,25,10.10
2015,06,12,08,26,10.00
2015,06,12,08,27,10.50
2015,06,12,08,28,9.60
2015,06,12,08,29,15.60
2015,06,12,08,30,11.70
2015,06,12,08,31,15.70
2015,06,12,08,32,14.30
2015,06,12,08,33,15.90
2015,06,12,08,34,10.50
2015,06,12,08,35,10.30
2015,06,12,08,36,8.00
2015,06,12,08,37,16.50
2015,06,12,08,38,16.90
2015,06,12,08,39,14.60
2015,06,12,08,40,11.90
2015,06,12,08,41,8.60
2015,06,12,08,42,8.50
2015,06,12,08,43,8.90
2015,06,12,08,44,10.00
2015,06,12,08,45,9.90
2015,06,12,08,46,8.30
2015,06,12,08,47,12.40
2015,06,12,08,48,13.80
2015,06,12,08,49,12.00
2015,06,12,08,50,12.20
2015,06,12,08,51,14.30
2015,06,12,08,52,11.80
2015,06,12,08,53,13.90
2015,06,12,08,54,9.90
2015,06,12,08,55,15.10
2015,06,12,08,56,17.80
2015,06,12,08,57,10.30
2015,06,12,08,58,11.30
2015,06,12,08,59,9.40
2015,06,12,09,00,10.80
2015,06,12,09,01,10.80
2015,06,12,09,02,11.30
2015,06,12,09,03,15.60
2015,06,12,09,04,12.60
2015,06,12,09,05,11.50
2015,06,12,09,06,17.20
2015,06,12,09,07,14.50
2015,06,12,09,08,13.00
2015,06,12,09,09,14.40
2015,06,12,09,10,10.90
2015,06,12,09,11,13.30
2015,06,12,09,12,12.70
2015,06,12,09,13,10.80
2015,06,12,09,14,11.90
2015,06,12,09,15,14.30
2015,06,12,09,16,14.60
2015,06,12,09,17,15.80
2015,06,12,09,18,12.40
2015,06,12,09,19,11.60
2015,06,12,09,20,9.70
2015,06,12,09,21,9.40
2015,06,12,09,22,10.70
2015,06,12,09,23,15.60
2015,06,12,09,24,13.30
2015,06,12,09,25,12.50
2015,06,12,09,26,12.60
2015,06,12,09,27,11.70
2015,06,12,09,28,19.40
2015,06,12,09,29,15.00
2015,06,12,09,30,12.60
2015,06,12,09,31,15.80
2015,06,12,09,32,13.50
2015,06,12,09,33,16.80
2015,06,12,09,34,12.70
2015,06,12,09,35,19.90
2015,06,12,09,36,17.80
2015,06,12,09,37,19.40
2015,06,12,09,38,17.50
2015,06,12,09,39,14.40
2015,06,12,09,40,16.40
2015,06,12,09,41,16.20
2015,06,12,09,42,19.70
2015,06,12,09,43,16.70
2015,06,12,09,44,17.50
2015,06,12,09,45,15.90
2015,06,12,09,46,15.30
2015,06,12,09,47,16.00
2015,06,12,09,48,15.90
2015,06,12,09,49,17.10
2015,06,12,09,50,18.70
2015,06,12,09,51,16.90
2015,06,12,09,52,21.80
2015,06,12,09,53,18.00
2015,06,12,09,54,19.80
2015,06,12,09,55,14.20
2015,06,12,09,56,12.00
2015,06,12,09,57,10.50
2015,06,12,09,58,16.90
2015,06,12,09,59,16.40
2015,06,12,10,00,18.80
2015,06,12,10,01,24.10
2015,06,12,10,02,18.20
2015,06,12,10,03,19.60
2015,06,12,10,04,21.00
2015,06,12,10,05,18.90
2015,06,12,10,06,21.90
2015,06,12,10,07,15.90
2015,06,12,10,08,16.90
2015,06,12,10,09,15.70
2015,06,12,10,10,17.60
2015,06,12,10,11,19.50
2015,06,12,10,12,22.60
2015,06,12,10,13,20.70
2015,06,12,10,14,23.70
2015,06,12,10,15,21.90
2015,06,12,10,16,23.40
2015,06,12,10,17,22.00
2015,06,12,10,18,21.70
2015,06,12,10,19,23.40
2015,06,12,10,20,20.00
2015,06,12,10,21,15.80
2015,06,12,10,22,22.10
2015,06,12,10,23,18.80
2015,06,12,10,24,15.90
2015,06,12,10,25,26.70
2015,06,12,10,26,19.30
2015,06,12,10,27,20.40
2015,06,12,10,28,21.40
2015,06,12,10,29,15.70
2015,06,12,10,30,15.40
2015,06,12,10,31,14.10
2015,06,12,10,32,15.30
2015,06,12,10,33,24.50
2015,06,12,10,34,21.10
2015,06,12,10,35,16.70
2015,06,12,10,36,14.30
2015,06,12,10,37,17.80
2015,06,12,10,38,19.60
2015,06,12,10,39,13.50
2015,06,12,10,40,23.40
2015,06,12,10,41,13.60
2015,06,12,10,42,19.20
2015,06,12,10,43,20.40
2015,06,12,10,44,23.80
2015,06,12,10,45,15.10
2015,06,12,10,46,22.10
2015,06,12,10,47,21.20
2015,06,12,10,48,21.00
2015,06,12,10,49,17.50
2015,06,12,10,50,15.60
2015,06,12,10,51,17.50
2015,06,12,10,52,17.90
2015,06,12,10,53,20.20
2015,06,12,10,54,20.00
2015,06,12,10,55,15.60
2015,06,12,10,56,17.20
2015,06,12,10,57,26.00
2015,06,12,10,58,19.70
2015,06,12,10,59,19.90
2015,06,12,11,00,20.30
2015,06,12,11,01,25.70
2015,06,12,11,02,20.00
2015,06,12,11,03,26.20
2015,06,12,11,04,21.20
2015,06,12,11,05,18.00
2015,06,12,11,06,18.50
2015,06,12,11,07,24.00
2015,06,12,11,08,24.10
2015,06,12,11,09,21.90
2015,06,12,11,10,22.30
2015,06,12,11,11,20.00
2015,06,12,11,12,18.10
2015,06,12,11,13,21.50
2015,06,12,11,14,21.20
2015,06,12,11,15,23.70
2015,06,12,11,16,20.20
2015,06,12,11,17,23.80
2015,06,12,11,18,21.80
2015,06,12,11,19,17.90
2015,06,12,11,20,20.90
2015,06,12,11,21,23.90
2015,06,12,11,22,21.40
2015,06,12,11,23,21.30
2015,06,12,11,24,18.90
2015,06,12,11,25,21.50
2015,06,12,11,26,11.60
2015,06,12,11,27,23.80
2015,06,12,11,28,17.80
2015,06,12,11,29,13.10
2015,06,12,11,30,19.70
2015,06,12,11,31,21.70
2015,06,12,11,32,19.90
2015,06,12,11,33,13.00
2015,06,12,11,34,16.60
2015,06,12,11,35,14.70
2015,06,12,11,36,14.50
2015,06,12,11,37,18.70
2015,06,12,11,38,16.30
2015,06,12,11,39,9.40
2015,06,12,11,40,14.90
2015,06,12,11,41,15.50
2015,06,12,11,42,18.20
2015,06,12,11,43,13.10
2015,06,12,11,44,21.50
2015,06,12,11,45,14.00
2015,06,12,11,46,11.50
2015,06,12,11,47,18.80
2015,06,12,11,48,12.70
2015,06,12,11,49,12.50
2015,06,12,11,50,16.00
2015,06,12,11,51,16.70
2015,06,12,11,52,17.70
2015,06,12,11,53,18.90
2015,06,12,11,54,17.20
2015,06,12,11,55,20.10
2015,06,12,11,56,15.30
2015,06,12,11,57,23.30
2015,06,12,11,58,19.50
2015,06,12,11,59,18.90
2015,06,12,12,00,22.60
2015,06,12,12,01,18.40
2015,06,12,12,02,14.60
2015,06,12,12,03,16.70
2015,06,12,12,04,15.10
2015,06,12,12,05,13.70
2015,06,12,12,06,14.40
2015,06,12,12,07,15.90
2015,06,12,12,08,17.10
2015,06,12,12,09,17.00
2015,06,12,12,10,19.60
2015,06,12,12,11,14.60
2015,06,12,12,12,16.80
2015,06,12,12,13,14.60
2015,06,12,12,14,14.00
2015,06,12,12,15,13.90
2015,06,12,12,16,17.20
2015,06,12,12,17,18.50
2015,06,12,12,18,17.30
2015,06,12,12,19,14.30
2015,06,12,12,20,13.00
2015,06,12,12,21,19.60
2015,06,12,12,22,16.20
2015,06,12,12,23,18.30
2015,06,12,12,24,19.40
2015,06,12,12,25,16.20
2015,06,12,12,26,15.80
2015,06,12,12,27,18.60
2015,06,12,12,28,20.50
2015,06,12,12,29,17.20
2015,06,12,12,30,17.40
2015,06,12,12,31,17.40
2015,06,12,12,32,18.60
2015,06,12,12,33,17.90
2015,06,12,12,34,19.20
2015,06,12,12,35,17.80
2015,06,12,12,36,20.00
2015,06,12,12,37,20.10
2015,06,12,12,38,19.50
2015,06,12,12,39,20.70
2015,06,12,12,40,16.60
2015,06,12,12,41,22.70
2015,06,12,12,42,18.10
2015,06,12,12,43,19.20
2015,06,12,12,44,22.00
2015,06,12,12,45,19.30
2015,06,12,12,46,14.70
2015,06,12,12,47,24.20
2015,06,12,12,48,16.80
2015,06,12,12,49,16.10
2015,06,12,12,50,19.30
2015,06,12,12,51,15.00
2015,06,12,12,52,14.10
2015,06,12,12,53,19.40
2015,06,12,12,54,18.50
2015,06,12,12,55,17.20
2015,06,12,12,56,19.20
2015,06,12,12,57,20.30
2015,06,12,12,58,19.50
2015,06,12,12,59,13.70
2015,06,12,13,00,17.30
2015,06,12,13,01,15.90
2015,06,12,13,02,16.90
2015,06,12,13,03,14.80
2015,06,12,13,04,15.20
2015,06,12,13,05,16.90
2015,06,12,13,06,11.40
2015,06,12,13,07,18.90
2015,06,12,13,08,14.70
2015,06,12,13,09,17.80
2015,06,12,13,10,16.90
2015,06,12,13,11,18.20
2015,06,12,13,12,17.80
2015,06,12,13,13,16.90
2015,06,12,13,14,18.30
2015,06,12,13,15,18.10
2015,06,12,13,16,16.60
2015,06,12,13,17,14.70
2015,06,12,13,18,18.10
2015,06,12,13,19,14.70
2015,06,12,13,20,19.20
2015,06,12,13,21,15.40
2015,06,12,13,22,19.30
2015,06,12,13,23,21.20
2015,06,12,13,24,20.50
2015,06,12,13,25,17.60
2015,06,12,13,26,16.80
2015,06,12,13,27,18.10
2015,06,12,13,28,22.20
2015,06,12,13,29,21.50
2015,06,12,13,30,18.70
2015,06,12,13,31,18.20
2015,06,12,13,32,13.60
2015,06,12,13,33,12.30
2015,06,12,13,34,20.20
2015,06,12,13,35,19.90
2015,06,12,13,36,21.30
2015,06,12,13,37,19.90
2015,06,12,13,38,13.40
2015,06,12,13,39,18.70
2015,06,12,13,40,18.20
2015,06,12,13,41,20.50
2015,06,12,13,42,15.30
2015,06,12,13,43,16.70
2015,06,12,13,44,25.30
2015,06,12,13,45,26.90
2015,06,12,13,46,21.70
2015,06,12,13,47,21.20
2015,06,12,13,48,20.10
2015,06,12,13,49,20.50
2015,06,12,13,50,21.40
2015,06,12,13,51,19.00
2015,06,12,13,52,21.80
2015,06,12,13,53,16.90
2015,06,12,13,54,25.00
2015,06,12,13,55,20.20
2015,06,12,13,56,16.90
2015,06,12,13,57,18.00
2015,06,12,13,58,16.40
2015,06,12,13,59,14.90
2015,06,12,14,00,19.90
2015,06,12,14,01,18.00
2015,06,12,14,02,18.60
2015,06,12,14,03,20.30
2015,06,12,14,04,14.80
2015,06,12,14,05,20.40
2015,06,12,14,06,19.20
2015,06,12,14,07,18.90
2015,06,12,14,08,23.10
2015,06,12,14,09,16.40
2015,06,12,14,10,16.90
2015,06,12,14,11,23.70
2015,06,12,14,12,22.60
2015,06,12,14,13,13.30
2015,06,12,14,14,18.50
2015,06,12,14,15,19.70
2015,06,12,14,16,14.30
2015,06,12,14,17,18.70
2015,06,12,14,18,18.90
2015,06,12,14,19,25.40
2015,06,12,14,20,23.70
2015,06,12,14,21,20.40
2015,06,12,14,22,13.40
2015,06,12,14,23,22.60
2015,06,12,14,24,16.90
2015,06,12,14,25,17.10
2015,06,12,14,26,22.60
2015,06,12,14,27,21.20
2015,06,12,14,28,20.80
2015,06,12,14,29,21.40
2015,06,12,14,30,20.80
2015,06,12,14,31,21.80
2015,06,12,14,32,16.50
2015,06,12,14,33,18.00
2015,06,12,14,34,18.80
2015,06,12,14,35,17.00
2015,06,12,14,36,21.20
2015,06,12,14,37,15.90
2015,06,12,14,38,21.60
2015,06,12,14,39,17.20
2015,06,12,14,40,20.80
2015,06,12,14,41,20.30
2015,06,12,14,42,17.60
2015,06,12,14,43,22.00
2015,06,12,14,44,18.90
2015,06,12,14,45,16.30
2015,06,12,14,46,16.70
2015,06,12,14,47,15.50
2015,06,12,14,48,18.10
2015,06,12,14,49,22.90
2015,06,12,14,50,21.70
2015,06,12,14,51,20.00
2015,06,12,14,52,19.80
2015,06,12,14,53,14.60
2015,06,12,14,54,17.30
2015,06,12,14,55,18.50
2015,06,12,14,56,15.10
2015,06,12,14,57,17.80
2015,06,12,14,58,15.40
2015,06,12,14,59,15.80
2015,06,12,15,00,14.90
2015,06,12,15,01,17.70
2015,06,12,15,02,19.90
2015,06,12,15,03,17.70
2015,06,12,15,04,14.20
2015,06,12,15,05,22.00
2015,06,12,15,06,15.00
2015,06,12,15,07,17.90
2015,06,12,15,08,23.60
2015,06,12,15,09,16.50
2015,06,12,15,10,20.80
2015,06,12,15,11,24.70
2015,06,12,15,12,28.20
2015,06,12,15,13,26.70
2015,06,12,15,14,21.90
2015,06,12,15,15,18.50
2015,06,12,15,16,21.10
2015,06,12,15,17,23.00
2015,06,12,15,18,14.60
2015,06,12,15,19,16.80
2015,06,12,15,20,21.70
2015,06,12,15,21,21.00
2015,06,12,15,22,19.80
2015,06,12,15,23,20.10
2015,06,12,15,24,20.50
2015,06,12,15,25,17.80
2015,06,12,15,26,22.00
2015,06,12,15,27,19.50
2015,06,12,15,28,21.60
2015,06,12,15,29,18.10
2015,06,12,15,30,20.70
2015,06,12,15,31,25.70
2015,06,12,15,32,18.10
2015,06,12,15,33,16.30
2015,06,12,15,34,14.30
2015,06,12,15,35,18.30
2015,06,12,15,36,10.00
2015,06,12,15,37,20.10
2015,06,12,15,38,20.70
2015,06,12,15,39,15.60
2015,06,12,15,40,16.90
2015,06,12,15,41,17.00
2015,06,12,15,42,13.90
2015,06,12,15,43,17.30
2015,06,12,15,44,14.60
2015,06,12,15,45,9.80
2015,06,12,15,46,17.40
2015,06,12,15,47,17.60
2015,06,12,15,48,17.50
2015,06,12,15,49,17.60
2015,06,12,15,50,21.00
2015,06,12,15,51,15.10
2015,06,12,15,52,10.00
2015,06,12,15,53,15.80
2015,06,12,15,54,17.00
2015,06,12,15,55,15.30
2015,06,12,15,56,17.40
2015,06,12,15,57,16.90
2015,06,12,15,58,16.70
2015,06,12,15,59,14.90
2015,06,12,16,00,19.70
2015,06,12,16,01,18.30
2015,06,12,16,02,20.30
2015,06,12,16,03,17.60
2015,06,12,16,04,13.90
2015,06,12,16,05,21.40
2015,06,12,16,06,17.20
2015,06,12,16,07,11.70
2015,06,12,16,08,12.20
2015,06,12,16,09,19.70
2015,06,12,16,10,20.20
2015,06,12,16,11,16.00
2015,06,12,16,12,19.40
2015,06,12,16,13,22.20
2015,06,12,16,14,19.20
2015,06,12,16,15,17.80
2015,06,12,16,16,22.60
2015,06,12,16,17,16.60
2015,06,12,16,18,14.80
2015,06,12,16,19,16.60
2015,06,12,16,20,13.50
2015,06,12,16,21,21.40
2015,06,12,16,22,17.80
2015,06,12,16,23,20.80
2015,06,12,16,24,24.90
2015,06,12,16,25,13.90
2015,06,12,16,26,8.80
2015,06,12,16,27,14.60
2015,06,12,16,28,10.30
2015,06,12,16,29,15.00
2015,06,12,16,30,13.90
2015,06,12,16,31,15.20
2015,06,12,16,32,14.20
2015,06,12,16,33,15.90
2015,06,12,16,34,13.80
2015,06,12,16,35,10.70
2015,06,12,16,36,17.60
2015,06,12,16,37,9.70
2015,06,12,16,38,10.00
2015,06,12,16,39,14.80
2015,06,12,16,40,10.90
2015,06,12,16,41,17.00
2015,06,12,16,42,15.90
2015,06,12,16,43,19.70
2015,06,12,16,44,15.60
2015,06,12,16,45,15.10
2015,06,12,16,46,18.70
2015,06,12,16,47,15.20
2015,06,12,16,48,13.30
2015,06,12,16,49,14.30
2015,06,12,16,50,10.10
2015,06,12,16,51,13.20
2015,06,12,16,52,13.40
2015,06,12,16,53,7.20
2015,06,12,16,54,8.60
2015,06,12,16,55,12.00
2015,06,12,16,56,9.70
2015,06,12,16,57,10.60
2015,06,12,16,58,12.60
2015,06,12,16,59,13.70
2015,06,12,17,00,9.20
2015,06,12,17,01,14.40
2015,06,12,17,02,9.60
2015,06,12,17,03,11.70
2015,06,12,17,04,9.20
2015,06,12,17,05,7.70
2015,06,12,17,06,7.90
2015,06,12,17,07,12.60
2015,06,12,17,08,9.30
2015,06,12,17,09,11.20
2015,06,12,17,10,11.40
2015,06,12,17,11,13.40
2015,06,12,17,12,15.00
2015,06,12,17,13,11.60
2015,06,12,17,14,11.50
2015,06,12,17,15,6.60
2015,06,12,17,16,12.30
2015,06,12,17,17,7.50
2015,06,12,17,18,9.10
2015,06,12,17,19,15.60
2015,06,12,17,20,12.80
2015,06,12,17,21,9.20
2015,06,12,17,22,11.30
2015,06,12,17,23,10.30
2015,06,12,17,24,16.20
2015,06,12,17,25,13.80
2015,06,12,17,26,8.40
2015,06,12,17,27,11.60
2015,06,12,17,28,14.50
2015,06,12,17,29,9.70
2015,06,12,17,30,17.60
2015,06,12,17,31,14.80
2015,06,12,17,32,13.70
2015,06,12,17,33,11.70
2015,06,12,17,34,11.70
2015,06,12,17,35,14.40
2015,06,12,17,36,11.30
2015,06,12,17,37,9.60
2015,06,12,17,38,16.50
2015,06,12,17,39,13.80
2015,06,12,17,40,11.60
2015,06,12,17,41,11.70